FW1241 Weather Reports


Display with metric or nautical units.
time (UTC)temp
F
wind
direction
speed
MPH
gust
MPH
rain 1hr
in
rain 24hr
in
rain mn
in
humidity
%
barometer
mb
20260904001604 88 323 1.0 2.0 0.00 0.00 0.00 36 1009.6
20260904001105 88 352 1.0 5.0 0.00 0.00 0.00 34 1009.4
20260903235604 87 288 1.0 2.0 0.00 0.00 0.00 34 1009.8
20260903234105 87 303 1.0 2.0 0.00 0.00 0.00 37 995.6
20260903233604 67 0 0.0 0.0 0.00 0.00 0.00 73 1014.8
20260903232604 67 0 0.0 0.0 0.00 0.00 0.00 73 1014.8
20260903232104 67 0 0.0 0.0 0.00 0.00 0.00 73 1014.8
20260903230104 67 0 0.0 0.0 0.00 0.00 0.00 73 1014.8
20260903155604 67 152 1.0 3.0 0.00 0.00 0.00 73 1014.8
20260903154104 65 184 2.0 5.0 0.00 0.00 0.00 74 1014.8
20260903153604 65 188 1.0 5.0 0.00 0.00 0.00 75 1014.9
20260903153104 65 127 0.0 2.0 0.00 0.00 0.00 76 1014.8
20260903152104 64 138 0.0 5.0 0.00 0.00 0.00 80 1014.8
20260903145604 59 193 0.0 2.0 0.00 0.00 0.00 88 1014.9
20260903143604 58 136 0.0 1.0 0.00 0.00 0.00 89 1014.6
20260903142104 57 131 0.0 0.0 0.00 0.00 0.00 89 1014.3
20260903141603 57 131 0.0 0.0 0.00 0.00 0.00 88 1014.2
20260903134604 56 229 0.0 0.0 0.00 0.00 0.00 88 1013.8
20260903133604 57 229 0.0 0.0 0.00 0.00 0.00 88 1013.7
20260903133104 57 229 0.0 0.0 0.00 0.00 0.00 88 1013.6
20260903131604 56 229 0.0 0.0 0.00 0.00 0.00 89 1013.5
20260903130104 56 229 0.0 0.0 0.00 0.00 0.00 88 1013.3
20260903125103 56 229 0.0 0.0 0.00 0.00 0.00 87 1013.3
20260903124604 56 229 0.0 0.0 0.00 0.00 0.00 87 1013.3
20260903123104 57 229 0.0 0.0 0.00 0.00 0.00 86 1013.4
20260903115104 58 229 0.0 0.0 0.00 0.00 0.00 86 1013.4
20260903113603 58 229 0.0 0.0 0.00 0.00 0.00 85 1013.3
20260903112104 59 238 0.0 0.0 0.00 0.00 0.00 85 1013.3
20260903111604 59 238 0.0 0.0 0.00 0.00 0.00 85 1013.3
20260903110104 59 238 0.0 0.0 0.00 0.00 0.00 85 1013.2
20260903105604 59 238 0.0 0.0 0.00 0.00 0.00 85 1013.3
20260903104604 59 238 0.0 0.0 0.00 0.00 0.00 85 1013.3
20260903103604 59 238 0.0 0.0 0.00 0.00 0.00 84 1013.2
20260903103104 60 238 0.0 0.0 0.00 0.00 0.00 85 1013.2
20260903102104 60 238 0.0 0.0 0.00 0.00 0.00 82 1013.2
20260903101103 60 238 0.0 0.0 0.00 0.00 0.00 82 1013.2
20260903100603 61 238 0.0 0.0 0.00 0.00 0.00 82 1013.1
20260903095604 61 238 0.0 0.0 0.00 0.00 0.00 81 1013.1
20260903094604 61 238 0.0 0.0 0.00 0.00 0.00 80 1013.2
20260903094103 61 238 0.0 0.0 0.00 0.00 0.00 80 1013.2
20260903093604 61 238 0.0 0.0 0.00 0.00 0.00 80 1013.2
20260903093104 61 238 0.0 0.0 0.00 0.00 0.00 80 1013.2
20260903092104 61 238 0.0 0.0 0.00 0.00 0.00 80 1013.2
20260903091604 61 238 0.0 0.0 0.00 0.00 0.00 80 1013.3
20260903091104 61 238 0.0 0.0 0.00 0.00 0.00 79 1013.3
20260903085604 62 238 0.0 0.0 0.00 0.00 0.00 77 1013.4
20260903085104 62 288 0.0 0.0 0.00 0.00 0.00 77 1013.4
20260903084104 63 288 0.0 0.0 0.00 0.00 0.00 75 1013.3
20260903083103 64 288 0.0 0.0 0.00 0.00 0.00 74 1013.3
20260903082604 64 288 0.0 0.0 0.00 0.00 0.00 73 1013.3
20260903082103 65 288 0.0 0.0 0.00 0.00 0.00 72 1013.3
20260903075604 67 288 0.0 0.0 0.00 0.00 0.00 64 1013.3
20260903075104 67 288 0.0 0.0 0.00 0.00 0.00 63 1013.2
20260903073604 67 288 0.0 1.0 0.00 0.00 0.00 64 1013.2
20260903071603 66 297 0.0 1.0 0.00 0.00 0.00 67 1013.1
20260903070103 65 315 0.0 0.0 0.00 0.00 0.00 70 1013.1
20260903065604 65 315 0.0 0.0 0.00 0.00 0.00 71 1013.0
20260903063604 65 314 0.0 0.0 0.00 0.00 0.00 74 1013.0
20260903062603 65 315 0.0 0.0 0.00 0.00 0.00 74 1013.0
20260903061604 66 315 0.0 0.0 0.00 0.00 0.00 75 1013.0
20260903055104 67 315 0.0 0.0 0.00 0.00 0.00 69 1013.0
20260903054104 67 315 0.0 0.0 0.00 0.00 0.00 69 1013.1
20260903053604 67 314 0.0 0.0 0.00 0.00 0.00 67 1013.1
20260903053104 67 315 0.0 0.0 0.00 0.00 0.00 66 1013.2
20260903052604 68 315 0.0 0.0 0.00 0.00 0.00 67 1013.2
20260903052104 68 315 0.0 0.0 0.00 0.00 0.00 67 1013.2
20260903045603 68 314 0.0 0.0 0.00 0.00 0.00 66 1013.3
20260903045103 68 315 0.0 0.0 0.00 0.00 0.00 67 1013.3
20260903044604 68 314 0.0 0.0 0.00 0.00 0.00 65 1013.3
20260903044104 68 315 0.0 0.0 0.00 0.00 0.00 65 1013.3
20260903043604 68 315 0.0 0.0 0.00 0.00 0.00 64 1013.2
20260903043103 68 315 0.0 0.0 0.00 0.00 0.00 62 1013.2
20260903042604 69 314 0.0 0.0 0.00 0.00 0.00 62 1013.2
20260903042104 69 315 0.0 0.0 0.00 0.00 0.00 61 1013.2
20260903041104 69 315 0.0 0.0 0.00 0.00 0.00 60 1013.1
20260903035603 70 315 0.0 0.0 0.00 0.00 0.00 58 1012.9
20260903033604 72 315 0.0 0.0 0.00 0.00 0.00 54 1012.7
20260903033104 72 315 0.0 0.0 0.00 0.00 0.00 55 1012.6
20260903032604 72 315 0.0 0.0 0.00 0.00 0.00 54 1012.6
20260903032104 73 315 0.0 0.0 0.00 0.00 0.00 54 1012.5
20260903025604 74 315 0.0 0.0 0.00 0.00 0.00 50 1012.4
20260903024603 75 315 0.0 0.0 0.00 0.00 0.00 48 1012.4
20260903024104 76 315 0.0 0.0 0.00 0.00 0.00 47 1012.4
20260903023103 77 315 0.0 0.0 0.00 0.00 0.00 45 1012.5
20260903022104 77 315 0.0 0.0 0.00 0.00 0.00 46 1012.5
20260903021604 78 315 0.0 0.0 0.00 0.00 0.00 44 1012.5
20260903020104 79 319 0.0 1.0 0.00 0.00 0.00 42 1012.6
20260903015104 80 336 0.0 1.0 0.00 0.00 0.00 41 1012.6
20260903014104 80 305 0.0 1.0 0.00 0.00 0.00 40 1012.6
20260903013604 81 300 0.0 1.0 0.00 0.00 0.00 40 1012.7
20260903012604 82 309 0.0 1.0 0.00 0.00 0.00 39 1012.7
20260903011603 82 300 1.0 3.0 0.00 0.00 0.00 37 1012.7
20260903011103 83 310 0.0 2.0 0.00 0.00 0.00 37 1012.8
20260903010604 84 309 0.0 2.0 0.00 0.00 0.00 36 1012.8
20260903005604 83 308 1.0 3.0 0.00 0.00 0.00 36 1012.8
20260903005104 83 273 1.0 2.0 0.00 0.00 0.00 36 1012.8
20260903004603 83 294 1.0 3.0 0.00 0.00 0.00 35 1012.8
20260903004104 84 296 1.0 3.0 0.00 0.00 0.00 35 1012.9
20260903003603 84 294 1.0 3.0 0.00 0.00 0.00 35 1013.0
20260903002104 84 302 1.0 3.0 0.00 0.00 0.00 35 1013.0